Weather observations for the past three days for
Jacksonville, Albert J Ellis Airport
Imperial (Metric)
Date Time (edt) Wind (mph) Vis. (mi.) Weather Sky Cond. Temperature (ºF) Relative Humidity Wind Chill (°F) Heat Index (°F) Pressure Precipitation (in)
Air Dwpt 6 hour altimeter (in) sea level (mb) 1 hr 3 hr 6 hr
Max. Min.
14 06:56 SW 3 3.00 Fog/Mist CLR 75.9 75 97% 75 30.11 1019.9 0.01
14 05:56 SW 3 1.25 Fog/Mist CLR 75 73.9 96% 73 30.1 1019.5
14 04:56 SW 3 0.75 Fog/Mist BKN003 75 75 100% 72 30.1 1019.5
14 03:56 SW 3 1.00 Fog/Mist BKN003 75 75 100% 72 30.11 1019.8
14 02:56 S 3 1.75 Fog/Mist CLR 75.9 75.9 100% 75 30.11 1019.9
14 01:56 S 5 4.00 Fog/Mist SCT043 77 77 81 77 100% 78 30.13 1020.3
14 00:56 S 5 4.00 Fog/Mist FEW043 77 77 100% 78 30.14 1020.7
13 23:56 S 5 0.50 Fog CLR 77 75.9 96% 78 30.15 1021.0
13 22:56 S 5 4.00 Fog/Mist CLR 78.1 77 97% 81 30.14 1020.8
13 21:56 S 3 5.00 Fog/Mist CLR 77 75.9 96% 78 30.13 1020.5
13 20:56 S 5 10.00 Fair CLR 79 77 94% 83 30.13 1020.6
13 19:56 S 7 10.00 Fair CLR 81 78.1 86 79 91% 89 30.14 1020.6 0.16
13 18:56 S 6 10.00 Fair CLR 82.9 79 88% 94 30.12 1020.0
13 17:56 S 5 10.00 Fair CLR 82.9 79 88% 94 30.12 1020.0
13 16:56 Calm 10.00 Thunderstorm in Vicinity Light Rain FEW049 BKN110 80.1 78.1 94% 86 30.12 1020.1 0.16 0.16
13 15:56 Vrbl 3 10.00 Thunderstorm in Vicinity BKN023 BKN033 BKN050 86 77 75% 97 30.13 1020.6
13 14:56 SW 8 10.00 A Few Clouds FEW021 84.9 77 77% 95 30.14 1020.6
13 13:56 SW 10 10.00 Fair CLR 84.9 77 87.1 79 77% 95 30.14 1020.9 0.02
13 12:56 S 13 G 17 10.00 Overcast BKN023 BKN029 OVC070 86 78.1 77% 98 30.16 1021.4 0.02
13 11:56 SW 9 9.00 Light Rain FEW020 SCT030 BKN035 84.9 78.1 80% 97 30.18 1022.0
13 10:56 S 8 10.00 Mostly Cloudy FEW018 SCT047 BKN060 84.9 77 77% 95 30.18 1022.0
13 09:56 S 12 10.00 Overcast BKN011 OVC018 82.9 78.1 85% 93 30.17 1022.0
13 08:56 S 8 10.00 Mostly Cloudy FEW013 BKN029 BKN048 79 75.9 90% 83 30.18 1022.2
13 07:56 S 8 10.00 A Few Clouds FEW050 78.1 75.9 78.1 75 93% 81 30.17 1021.9 0.04
13 06:56 S 8 10.00 Mostly Cloudy FEW015 BKN060 BKN070 75.9 75 97% 75 30.16 1021.5
13 05:56 S 8 10.00 Partly Cloudy SCT012 SCT060 75.9 75 97% 75 30.14 1020.9 0.04
13 04:56 Calm 8.00 Partly Cloudy FEW021 SCT065 75.9 75.9 100% 75 30.13 1020.5
13 03:56 SE 5 10.00 Mostly Cloudy FEW020 SCT025 BKN044 75.9 75 97% 75 30.12 1020.1
13 02:56 E 3 10.00 Mostly Cloudy BKN023 BKN032 77 75.9 96% 78 30.14 1020.7
13 01:56 SE 3 9.00 A Few Clouds FEW026 78.1 77 78.1 75.9 97% 81 30.14 1020.8 0.22
13 00:56 Calm 10.00 A Few Clouds FEW019 77 75.9 96% 78 30.14 1020.9 0.06
12 23:56 Calm 8.00 Light Rain SCT018 BKN024 OVC100 77 75.9 96% 78 30.15 1021.0
12 22:56 Calm 10.00 Light Rain FEW010 BKN085 OVC100 77 75.9 96% 78 30.15 1021.1 0.1 0.16
12 21:56 Vrbl 5 4.00 Rain Fog/Mist FEW034 SCT075 OVC095 77 75 94% 78 30.15 1021.2 0.06
12 20:56 S 5 10.00 Partly Cloudy SCT080 75.9 75 97% 75 30.13 1020.4
12 19:56 SE 5 10.00 Light Rain FEW017 OVC047 75.9 75 87.1 75.9 97% 75 30.14 1020.9 0.03 0.31
12 18:56 E 6 10.00 Light Rain SCT018 BKN070 OVC095 75.9 75 97% 75 30.11 1019.9 0.02
12 17:56 SW 9 3.00 Thunderstorm Rain Fog/Mist FEW015 SCT020 BKN028 75.9 73 91% 76 30.11 1019.8 0.22
12 16:56 S 8 G 17 10.00 Light Rain SCT022 BKN027 OVC060 82 78.1 88% 91 30.1 1019.6 0.04
12 14:56 S 10 G 21 10.00 Light Rain SCT029 SCT034 BKN045 82.9 77 82% 92 30.1 1019.3 0.01
12 13:56 S 14 G 23 9.00 Mostly Cloudy FEW026 SCT034 BKN050 86 78.1 87.1 80.1 77% 98 30.1 1019.3 0.01
12 12:56 S 14 G 21 9.00 Light Rain OVC028 84.9 77 77% 95 30.1 1019.5 0.01
12 11:56 S 9 G 25 10.00 Mostly Cloudy BKN026 BKN033 84.9 78.1 80% 97 30.11 1019.7
12 10:56 SE 17 G 21 10.00 Partly Cloudy SCT024 84 77 80% 94 30.1 1019.4
12 09:56 S 10 10.00 A Few Clouds FEW022 82 77 85% 90 30.09 1019.0
12 08:56 S 8 10.00 A Few Clouds FEW024 82 77 85% 90 30.07 1018.5
12 07:56 SE 7 10.00 Mostly Cloudy FEW021 SCT026 BKN031 80.1 78.1 81 77 94% 86 30.06 1018.1 0.04
12 06:56 S 6 10.00 Mostly Cloudy BKN024 BKN070 79 77 94% 83 30.04 1017.4
12 05:56 S 3 10.00 Overcast BKN021 OVC060 78.1 77 97% 81 30.04 1017.4 0.02
12 04:56 S 9 9.00 Thunderstorm in Vicinity SCT023 BKN029 OVC035 78.1 75.9 93% 81 30.03 1017.0 0.02
12 03:56 Calm 10.00 Light Rain FEW020 BKN034 OVC044 78.1 75.9 93% 81 30.01 1016.5 0.01
12 02:56 N 5 10.00 Mostly Cloudy SCT020 BKN026 BKN044 77 75.9 96% 78 30.03 1017.1 0.01
12 01:56 N 3 10.00 Thunderstorm in Vicinity Light Rain FEW009 SCT022 BKN036 77 75.9 79 77 96% 78 30.02 1016.8 0.59 0.87
12 00:56 E 3 0.75 Heavy Rain Fog/Mist BKN014 BKN026 OVC047 78.1 77 97% 81 30.01 1016.5 0.22
11 23:56 E 5 10.00 A Few Clouds FEW080 78.1 77 97% 81 30.01 1016.5 0.05
11 22:56 E 5 7.00 Mostly Cloudy BKN014 78.1 77 97% 81 30.01 1016.4 0.01
11 21:56 Calm 10.00 Overcast BKN013 BKN019 OVC050 79 78.1 97% 83 30.01 1016.4 0.01
11 20:56 NE 5 9.00 A Few Clouds FEW060 78.1 77 97% 81 30 1016.0
11 19:56 NE 5 10.00 Partly Cloudy FEW022 SCT039 SCT110 78.1 77 86 78.1 97% 81 29.99 1015.6 0.21 0.48
11 18:56 N 3 10.00 Mostly Cloudy SCT028 BKN085 BKN110 79 78.1 97% 83 29.99 1015.6 0.24
11 17:56 Calm 10.00 Overcast SCT028 BKN060 OVC100 80.1 78.1 94% 86 29.96 1014.8
11 16:56 Calm 10.00 Overcast SCT028 BKN040 OVC080 79 77 94% 83 29.97 1014.9 0.03
11 15:56 W 3 10.00 Thunderstorm Light Rain FEW013 BKN026 OVC049 79 77 94% 83 29.96 1014.8
11 14:56 Calm 10.00 Mostly Cloudy FEW024 SCT030 BKN037 84.9 79 82% 98 29.96 1014.5 0.03
11 13:56 Vrbl 5 10.00 Light Rain BKN029 OVC035 82.9 78.1 86 77 85% 93 29.97 1015.0 0.19
11 12:56 W 6 10.00 Light Rain BKN029 BKN038 BKN085 82.9 80.1 91% 95 29.97 1015.1 0.03
11 11:56 W 8 10.00 Thunderstorm SCT004 SCT020 OVC025 79 75.9 90% 83 29.97 1015.0 0.14
11 10:56 N 10 G 17 10.00 Thunderstorm Light Rain FEW007 OVC019 79 77 94% 83 29.96 1014.7 0.02 0.02
11 09:56 Vrbl 7 10.00 Overcast BKN016 OVC033 82 78.1 88% 91 29.94 1014.2
11 08:56 SE 3 10.00 Overcast OVC012 82.9 80.1 91% 95 29.95 1014.2
11 07:56 S 3 10.00 Overcast FEW013 BKN024 OVC042 81 80.1 81 79 97% 90 29.94 1013.8 0.02
Date Time (edt) Wind (mph) Vis. (mi.) Weather Sky Cond. Air Dwpt Max. Min. Relative Humidity Wind Chill (°F) Heat Index (°F) altimeter (in) sea level (mb) 1 hr 3 hr 6 hr
6 hour
Temperature (ºF) Pressure Precipitation (in)